This is the latest recevied weather packets stored in our database for station/object KC3WWU. If no packets are shown the sender has not sent any weather packets the latest 10 day(s).
| Time | Temp. | Humidity | Pressure | Rain* | Wind** | Luminosity | Snow |
|---|---|---|---|---|---|---|---|
| 1777647576 | 10° C | 64% | 1010.3 hPa | 0 mm | - | 584 W/m² | - |
| 1777647273 | 10° C | 64% | 1010.7 hPa | 0 mm | - | 574 W/m² | - |
| 1777646971 | 10° C | 62% | 1010.7 hPa | 0 mm | - | 315 W/m² | - |
| 1777646666 | 10° C | 68% | 1010.4 hPa | 0 mm | - | 413 W/m² | - |
| 1777646362 | 9.44° C | 70% | 1010.8 hPa | 0 mm | - | 379 W/m² | - |
| 1777646059 | 8.33° C | 74% | 1010.8 hPa | 0 mm | - | 315 W/m² | - |
| 1777645755 | 8.33° C | 74% | 1010.7 hPa | 0 mm | - | 245 W/m² | - |
| 1777645453 | 8.33° C | 76% | 1010.8 hPa | 0 mm | - | 272 W/m² | - |
| 1777645148 | 7.78° C | 76% | 1010.7 hPa | 0 mm | - | 240 W/m² | - |
| 1777644844 | 8.33° C | 78% | 1011 hPa | 0 mm | - | 238 W/m² | - |
| 1777644543 | 7.78° C | 79% | 1010.9 hPa | 0 mm | - | 253 W/m² | - |
| 1777644239 | 7.78° C | 80% | 1010.8 hPa | 0 mm | - | 261 W/m² | - |
| 1777643935 | 7.78° C | 79% | 1011 hPa | 0 mm | - | 228 W/m² | - |
| 1777643633 | 7.78° C | 81% | 1011 hPa | 0 mm | - | 288 W/m² | - |
| 1777643330 | 8.33° C | 81% | 1010.8 hPa | 0 mm | - | 277 W/m² | - |
| 1777643026 | 7.78° C | 81% | 1010.7 hPa | 0 mm | - | 194 W/m² | - |
| 1777642723 | 7.78° C | 81% | 1010.8 hPa | 0 mm | - | 442 W/m² | - |
| 1777642420 | 7.78° C | 81% | 1011 hPa | 0 mm | - | 382 W/m² | - |
| 1777642116 | 7.22° C | 83% | 1011 hPa | 0 mm | - | 368 W/m² | - |
| 1777641812 | 7.22° C | 85% | 1011.2 hPa | 0 mm | - | 358 W/m² | - |
| 1777641508 | 7.22° C | 86% | 1011.3 hPa | 0 mm | - | 247 W/m² | - |
| 1777641203 | 6.67° C | 87% | 1011.3 hPa | 0 mm | - | 206 W/m² | - |
| 1777640900 | 6.11° C | 89% | 1011.3 hPa | 0 mm | - | 312 W/m² | - |
| 1777640597 | 5.56° C | 91% | 1011.7 hPa | 0 mm | - | 216 W/m² | - |
| 1777640293 | 5° C | 94% | 1011.3 hPa | 0 mm | - | 173 W/m² | - |
* Rain latest hour (hover to see other rain measurements)
** Current wind speed in m/s (hover to see current wind gust speed)